THOR ABLESTAR DEB, 246

Orbit data source: Space-Track

THOR ABLESTAR DEB, 246 is space debris in LEO originally from a launch on Thu, 29 Jun 1961 UTC launched from the Air Force Eastern Test Range (AFETR). Debris objects in space refer to the collection of defunct objects orbiting the Earth. Examples of debris include non-operational satellites, rocket bodies, and fragments generated from explosions, collisions, or faulty payload assembly.

Loading next visibility...
Identifier
246, 1961-015CB
Orbit
LEO
Country
Flag of USUS
Related business
Manufacturer
Unknown
Mission
Spacecraft
Bus & Motor
Unknown
Mass
Unknown
Launch date (UTC)
1961-06-29 (64 years ago)
Launch vehicle
Unknown
Launch site
Air Force Eastern Test Range (AFETR)
Object type
Payload
Rocket body
Debris
Shape & HBR
Unknown shape, 0.2 m
Radar Cross Section
Medium (>0.1 m² and <1 m²)

Expand to show TLE details & history
Last TLE update: 20 hours ago

TLE from 20 hours ago
0 THOR ABLESTAR DEB
1   246U 61015CB  25312.60100463  .00000054  00000-0  10987-3 0  9995
2   246  66.8710   4.8015 0071870 286.9600  72.3608 13.86120569593299
Epoch: 2025-11-08T14:25Z
TLE epoch observation values (Epoch: 2025-11-08T14:25:26.800Z)
Latitude
-0.00001°
Longitude
100.41155°
Altitude
928.735 km
Speed
7.396 km/s
True Right ascension
00h 19m 12s
True Declination
0° 00' 00"
Sunlit
Object was in full shadow at epoch
Visualization orbit readout
Latitude
Unknown
Longitude
Unknown
Altitude
Unknown
Speed
Unknown
Apparent Right ascension
Unknown
Apparent Declination
Unknown
Sunlit
N/A
Visualization observer readout
Local Sidereal Time
06:35:24
Azimuth
Unknown
Elevation
Unknown
Doppler factor
Unknown
Orbital elements
Apogee altitude
993.247 km
Perigee altitude
888.047 km
Semi-major axis
7,318.784 km
Eccentricity
0.00719
Inclination
66.871°
RAAN
4.8015°
Arg. of periapsis
286.96°
True anomaly
73.14777°
Mean anomaly
72.3608°
Eccentric anomaly
72.75407°
Mean motion
3.46645 °/min
Orbital period
103.85 mins
BSTAR
0.00010987
Loading maneuver chart data...
Computing Atmospheric mass density...

Documentation

Showing up to 5 results
|